Location: Newark
(41.7475°N, 12.6504°E)
Time: 20:48:01
(UTC+00:00)

ISS - Visible Passes

Search period start: 14 December 2019 00:00
Search period end: 24 December 2019 00:00
Orbit: 411 x 421 km, 51.6° (Epoch: 15 December)

Date Brightness Start Highest point End Pass type
(mag) Time Alt. Az. Time Alt. Az. Time Alt. Az.
21 Dec -1.0 05:19:06 10° S 05:21:42 22° SE 05:24:19 10° E visible
22 Dec -0.6 04:31:50 10° SSE 04:33:21 13° SE 04:34:52 10° ESE visible
23 Dec -3.3 05:17:51 10° SW 05:21:06 61° SE 05:24:24 10° ENE visible
